Tracking 20083 objects as of 8-Dec-2019
HD Live streaming from Space Station
objects crossing your sky now

LEMUR 2 ORZULAK

Track LEMUR 2 ORZULAK now!
10-day predictions
LEMUR 2 ORZULAK is classified as:


NORAD ID: 43731
Int'l Code: 2018-096N
Perigee: 473.6 km
Apogee: 504.1 km
Inclination: 97.4 °
Period: 94.2 minutes
Semi major axis: 6859 km
RCS: Unknown
Launch date: November 29, 2018
Source: United States (US)
Launch site: SRIHARIKOTA (SRI)
aabbcc
Your satellite tracking list
Your tracking list is empty




NASA's NSSDC Master Catalog

Two Line Element Set (TLE):
1 43731U 18096N   19341.74806773  .00001642  00000-0  62423-4 0  9996
2 43731  97.4452  51.8686 0022198  88.7827 271.5955 15.28026008 57016
Source of the keplerian elements: AFSPC